Sunshine Coast Airport Observation History
Time Wind Speed Temp Pressure Rel. Hum Rain
16/09:00pm WNW 5-7 kts 21.8°c 1011.0 hPa 95% 18.0mm
16/08:30pm W 7-9 kts 21.7°c 1010.3 hPa 94% 17.8mm
16/08:06pm NW 5-7 kts 21.6°c 1009.7 hPa 94% 17.8mm
16/08:02pm N 5-9 kts 21.6°c 1009.4 hPa 93% 17.8mm
16/08:00pm NNE 6-11 kts 21.5°c 1009.5 hPa 93% 17.8mm
16/07:56pm NNE 7-11 kts 21.7°c 1009.7 hPa 93% 17.8mm
16/07:55pm NNE 7-11 kts 21.7°c 1009.6 hPa 93% 17.8mm
16/07:30pm SE 8-11 kts 21.9°c 1009.8 hPa 92% 13.4mm
16/07:28pm SSE 8-11 kts 21.9°c 1009.8 hPa 92% 13.0mm
16/07:02pm S 7-11 kts 22.0°c 1009.8 hPa 92% 10.6mm
16/07:00pm SSW 7-11 kts 22.2°c 1009.8 hPa 93% 10.6mm
16/06:40pm S 19-31 kts 22.3°c 1008.7 hPa 88% 8.4mm
16/06:39pm S 19-31 kts 22.3°c 1008.8 hPa 87% 7.2mm
16/06:37pm SSW 19-31 kts 22.7°c 1009.0 hPa 85% 3.4mm
16/06:30pm S 14-26 kts 24.9°c 1009.0 hPa 76% 0.0mm
16/06:27pm SSE 12-26 kts 25.3°c 1008.8 hPa 77% 0.0mm
16/06:00pm E 12-15 kts 25.6°c 1007.3 hPa 77% 0.0mm
16/05:30pm E 9-13 kts 26.9°c 1007.2 hPa 76% 0.0mm
16/05:00pm ENE 10-12 kts 27.1°c 1006.4 hPa 76% 0.0mm
16/04:30pm NE 11-15 kts 27.4°c 1006.3 hPa 77% 0.0mm
16/04:06pm NNE 16-20 kts 26.8°c 1005.3 hPa 76% 0.0mm
16/04:00pm NNE 17-20 kts 26.8°c 1005.1 hPa 75% 0.0mm
16/03:56pm NE 16-20 kts 27.0°c 1005.0 hPa 76% 0.0mm
16/03:30pm NNE 17-21 kts 27.6°c 1005.6 hPa 74% 0.0mm
16/03:00pm NNE 19-22 kts 28.4°c 1005.3 hPa 72% 0.0mm
16/02:30pm NNE 17-21 kts 27.0°c 1005.5 hPa 77% 0.0mm
16/02:00pm NNE 18-21 kts 29.3°c 1005.5 hPa 70% 0.0mm
16/01:30pm NNE 18-22 kts 28.8°c 1005.5 hPa 68% 0.0mm
16/01:00pm NNE 18-21 kts 28.9°c 1005.8 hPa 69% 0.0mm
16/12:30pm NNE 17-21 kts 29.1°c 1006.0 hPa 72% 0.0mm
16/12:00pm NE 17-19 kts 28.6°c 1006.0 hPa 72% 0.0mm
16/11:30am NNE 16-18 kts 28.7°c 1006.3 hPa 70% 0.0mm
16/11:00am NNE 15-17 kts 28.8°c 1006.5 hPa 70% 0.0mm
16/10:30am NE 14-17 kts 28.3°c 1006.7 hPa 70% 0.0mm
16/10:00am NW 7-11 kts 30.1°c 1006.9 hPa 60% 0.0mm
16/09:30am NNW 8-13 kts 28.8°c 1007.3 hPa 63% 0.0mm
16/09:00am WNW 8-12 kts 28.2°c 1007.6 hPa 65% 0.0mm
16/08:30am NW 9-13 kts 27.3°c 1007.8 hPa 67% 0.0mm
16/08:00am NW 8-11 kts 26.2°c 1008.2 hPa 73% 0.0mm
16/07:30am N 6-9 kts 25.0°c 1008.0 hPa 81% 0.0mm
16/07:00am N 5-8 kts 23.9°c 1008.4 hPa 84% 0.0mm
16/06:30am NW 3-5 kts 23.3°c 1008.5 hPa 87% 0.0mm
16/06:00am NW 4-5 kts 22.8°c 1008.2 hPa 89% 0.0mm
16/05:30am WSW 4-5 kts 22.3°c 1008.0 hPa 90% 0.0mm
16/05:00am WNW 4-5 kts 21.9°c 1007.4 hPa 90% 0.0mm
16/04:30am N 5-7 kts 22.0°c 1006.8 hPa 89% 0.0mm
16/04:00am N 7-9 kts 21.9°c 1006.4 hPa 90% 0.0mm
16/03:30am N 5-7 kts 21.8°c 1006.5 hPa 90% 0.0mm
16/03:00am NW 4-5 kts 21.6°c 1006.8 hPa 89% 0.0mm
16/02:30am NNW 6-8 kts 21.9°c 1006.4 hPa 88% 0.0mm
16/02:00am N 8-11 kts 21.9°c 1006.2 hPa 88% 0.0mm
16/01:30am NNW 8-10 kts 22.0°c 1006.1 hPa 89% 0.0mm
16/01:00am N 7-10 kts 21.9°c 1006.5 hPa 89% 0.0mm
16/12:30am NNW 7-10 kts 22.2°c 1006.8 hPa 89% 0.0mm
16/12:00am NNW 8-11 kts 22.5°c 1006.9 hPa 88% 0.0mm
Time Wind Speed Temp Pressure Rel. Hum Rain
15/11:30pm NNW 7-8 kts 22.4°c 1007.3 hPa 89% 0.0mm
15/11:00pm NW 7-9 kts 22.5°c 1007.7 hPa 89% 0.0mm
15/10:30pm NW 7-8 kts 22.5°c 1007.6 hPa 87% 0.0mm
15/10:00pm NNW 7-10 kts 23.1°c 1007.4 hPa 86% 0.0mm
15/09:30pm NNW 6-9 kts 23.2°c 1007.5 hPa 85% 0.0mm
15/09:00pm N 8-11 kts 24.0°c 1007.6 hPa 82% 0.0mm
15/08:30pm N 11-16 kts 24.5°c 1007.4 hPa 80% 0.0mm
15/08:00pm N 10-16 kts 24.7°c 1007.1 hPa 80% 0.0mm
15/07:30pm N 13-17 kts 24.9°c 1006.8 hPa 78% 0.0mm
15/07:00pm N 11-17 kts 25.0°c 1006.8 hPa 78% 0.0mm
15/06:30pm N 12-16 kts 25.3°c 1006.5 hPa 75% 0.0mm
15/06:00pm NNE 14-17 kts 25.8°c 1006.3 hPa 74% 0.0mm
15/05:30pm NNE 15-18 kts 26.4°c 1006.1 hPa 72% 0.0mm
15/05:00pm NNE 14-17 kts 27.0°c 1006.2 hPa 69% 0.0mm
15/04:30pm NNE 14-17 kts 27.3°c 1006.4 hPa 66% 0.0mm
15/04:00pm NNE 13-16 kts 27.6°c 1006.8 hPa 66% 0.0mm
15/03:30pm NE 13-15 kts 27.9°c 1007.2 hPa 66% 0.0mm
15/03:00pm NE 12-14 kts 27.8°c 1007.4 hPa 64% 0.0mm
15/02:30pm NE 12-15 kts 28.0°c 1007.6 hPa 66% 0.0mm
15/02:00pm NE 13-15 kts 27.7°c 1007.9 hPa 65% 0.0mm
15/01:30pm ENE 11-14 kts 27.8°c 1008.2 hPa 63% 0.0mm
15/01:00pm NE 11-13 kts 28.2°c 1008.5 hPa 62% 0.0mm
15/12:30pm ENE 11-13 kts 27.7°c 1008.7 hPa 67% 0.0mm
15/12:00pm ENE 11-13 kts 27.7°c 1008.8 hPa 69% 0.0mm
15/11:30am ENE 11-13 kts 27.4°c 1009.0 hPa 66% 0.0mm
15/11:00am ENE 8-11 kts 27.4°c 1009.5 hPa 65% 0.0mm
15/10:30am ENE 9-11 kts 27.3°c 1009.9 hPa 67% 0.0mm
15/10:00am ENE 8-10 kts 27.0°c 1009.9 hPa 66% 0.0mm
15/09:30am ENE 7-9 kts 27.3°c 1009.9 hPa 68% 0.0mm
15/09:00am E 7-8 kts 26.5°c 1009.8 hPa 66% 0.0mm
15/08:30am S 3-6 kts 26.6°c 1010.2 hPa 65% 0.0mm
15/08:00am WSW 4-5 kts 25.6°c 1010.2 hPa 72% 0.0mm
15/07:30am WSW 4-5 kts 24.1°c 1010.3 hPa 78% 0.0mm
15/07:00am W 4-5 kts 22.1°c 1010.1 hPa 88% 0.0mm
15/06:30am W 5-6 kts 20.4°c 1009.8 hPa 93% 0.0mm
15/06:00am WNW 5-6 kts 19.3°c 1009.5 hPa 95% 0.0mm
15/05:30am WNW 5 kts 18.4°c 1009.5 hPa 95% 0.0mm
15/05:00am W 4 kts 18.2°c 1009.4 hPa 95% 0.0mm
15/04:30am WNW 4-5 kts 18.2°c 1009.1 hPa 94% 0.0mm
15/04:00am W 5-6 kts 18.2°c 1009.0 hPa 94% 0.0mm
15/03:30am WNW 4 kts 18.6°c 1009.1 hPa 94% 0.0mm
15/03:00am WNW 4-5 kts 18.7°c 1009.0 hPa 93% 0.0mm
15/02:30am W 5-6 kts 19.1°c 1008.9 hPa 93% 0.0mm
15/02:00am W 4-5 kts 19.1°c 1009.0 hPa 92% 0.0mm
15/01:30am SW 3-4 kts 19.8°c 1009.5 hPa 92% 0.0mm
15/01:00am W 4-5 kts 19.7°c 1009.8 hPa 91% 0.0mm
15/12:30am WSW 3-4 kts 19.9°c 1010.1 hPa 89% 0.0mm
15/12:00am WSW 4-5 kts 20.5°c 1010.4 hPa 89% 0.0mm
Time Wind Speed Temp Pressure Rel. Hum Rain
14/11:30pm W 3-4 kts 20.2°c 1010.7 hPa 88% 0.0mm
14/11:00pm WSW 5 kts 20.8°c 1010.8 hPa 87% 0.0mm
14/10:30pm W 5 kts 21.4°c 1011.0 hPa 85% 0.0mm
14/10:00pm E 5-6 kts 23.1°c 1011.3 hPa 75% 0.0mm
14/09:30pm E 7-9 kts 24.6°c 1011.2 hPa 73% 0.0mm
14/09:00pm E 6-9 kts 24.4°c 1011.2 hPa 73% 0.0mm
14/08:30pm ESE 6-9 kts 24.6°c 1011.2 hPa 73% 0.0mm
14/08:00pm ESE 6-9 kts 24.4°c 1011.1 hPa 72% 0.0mm
14/07:30pm E 7-10 kts 24.6°c 1011.0 hPa 72% 0.0mm
14/07:00pm ESE 8-11 kts 24.9°c 1010.9 hPa 68% 0.0mm
14/06:30pm ESE 7-10 kts 25.2°c 1010.7 hPa 64% 0.0mm
14/06:00pm ESE 9-11 kts 25.6°c 1010.4 hPa 60% 0.0mm
14/05:30pm ESE 9-13 kts 26.1°c 1010.3 hPa 58% 0.0mm
14/05:00pm ESE 11-14 kts 26.4°c 1010.1 hPa 58% 0.0mm
14/04:30pm ESE 11-16 kts 26.4°c 1009.9 hPa 53% 0.0mm
14/04:00pm ESE 11-15 kts 26.8°c 1010.2 hPa 57% 0.0mm
14/03:30pm ESE 11-15 kts 27.1°c 1010.3 hPa 56% 0.0mm
14/03:00pm ESE 12-16 kts 27.5°c 1010.5 hPa 54% 0.0mm
14/02:30pm ESE 12-16 kts 27.1°c 1010.7 hPa 56% 0.0mm
14/02:00pm SE 11-15 kts 27.8°c 1011.0 hPa 63% 0.0mm
14/01:30pm ESE 11-15 kts 27.4°c 1011.1 hPa 61% 0.0mm
14/01:00pm ESE 10-14 kts 28.2°c 1011.5 hPa 58% 0.0mm
14/12:30pm ESE 11-14 kts 27.9°c 1011.8 hPa 61% 0.0mm
14/12:00pm SE 10-13 kts 27.2°c 1012.2 hPa 59% 0.0mm
14/11:30am ESE 9-14 kts 27.3°c 1012.5 hPa 56% 0.0mm
14/11:00am SE 9-13 kts 27.0°c 1012.9 hPa 56% 0.0mm
14/10:30am SE 9-13 kts 27.5°c 1013.2 hPa 59% 0.0mm
14/10:00am SE 9-13 kts 27.7°c 1013.3 hPa 57% 0.0mm
14/09:30am SE 9-12 kts 27.2°c 1013.3 hPa 60% 0.0mm
14/09:00am SE 9-12 kts 26.8°c 1013.6 hPa 66% 0.0mm
14/08:30am SSE 9-12 kts 25.7°c 1013.6 hPa 67% 0.0mm
14/08:00am SSE 8-12 kts 26.0°c 1013.5 hPa 68% 0.0mm
14/07:30am S 7-9 kts 24.8°c 1013.4 hPa 73% 0.0mm
14/07:00am SSW 7-9 kts 23.9°c 1013.4 hPa 79% 0.0mm
14/06:30am SSW 7-10 kts 22.8°c 1013.3 hPa 87% 0.0mm
14/06:00am SW 6-7 kts 21.4°c 1013.1 hPa 92% 0.0mm
14/05:30am WSW 6-7 kts 20.9°c 1013.1 hPa 92% 0.0mm
14/05:00am SW 6-8 kts 21.0°c 1012.8 hPa 92% 0.0mm
14/04:30am WSW 5-6 kts 21.3°c 1012.7 hPa 91% 0.0mm
14/04:00am WSW 4-5 kts 21.5°c 1012.5 hPa 91% 0.0mm
14/03:30am WSW 5-6 kts 21.4°c 1012.5 hPa 91% 0.0mm
14/03:00am SSW 4-6 kts 21.4°c 1012.4 hPa 90% 0.0mm
14/02:30am SW 3-4 kts 21.8°c 1012.4 hPa 86% 0.0mm
14/02:00am SE 7-11 kts 23.9°c 1012.5 hPa 75% 0.0mm
14/01:30am SE 6-8 kts 23.9°c 1012.7 hPa 75% 0.0mm
14/01:00am E 7-10 kts 24.4°c 1013.0 hPa 73% 0.0mm
14/12:30am ESE 8-12 kts 24.3°c 1013.5 hPa 70% 0.0mm
14/12:00am SSE 5-7 kts 23.9°c 1014.0 hPa 74% 0.0mm